Weather in Dmitrianovskoye

Russia / Yaroslavl Oblast     57°05′54″N   39°08′46″E
temp.,
°C
wind,
m/s
gust,
m/s
humid.,
%
clouds,
%
prec.,
mm/h
press.,
hPa
HPBL,
m
9 may, sun
sun900:00+8s3798100 5.6 1001428
03:00+7wnw2396100 6.7 1002110
06:00+6nw5996100 0.0 1004440
09:00+4nw61195100 0.1 1007600
12:00+4nnw61296100 0.1 1010686
15:00+6n61285100 0.3 10131101
18:00+8nnw61365100 0.2 10141187
21:00+5nw357478 0.2 101875
10 may, mon
mon1000:00+3nw49855 0.0 1021160
03:00+1nw38820 0.0 1024140
06:00+2nnw38810 0.0 1027208
09:00+8n47560 0.0 1028909
12:00+11nne45455 0.0 10281539
15:00+13nne444452 0.0 10281432
18:00+12ne24582 0.0 1029521
21:00+7ene12675 0.0 103010
11 may, tue
tue1100:00+5nne22715 0.0 103111
03:00+4ne22745 0.0 103113
06:00+6ne24745 0.0 1032109
09:00+11ene355938 0.0 1032531
12:00+15e45495 0.0 10311025
15:00+17ene45460 0.0 10301087
18:00+16ene36613 0.0 1029365
21:00+10e33760 0.0 103037
12 may, wed
wed1200:00+9e33750 0.0 103040
03:00+8e35797 0.0 102969
06:00+9ene388475 0.0 1029199
09:00+15ene587433 0.0 1028461
12:00+20e68625 0.0 10271084
15:00+22ese575153 0.0 10261922
18:00+20e487098 0.0 1025364
21:00+16e3108079 0.1 1025248
13 may, thu
thu1300:00+14e3118799 0.0 1024211
03:00+13e4108886 0.0 1024208
06:00+13ese4118899 0.1 1023298
09:00+14ese3989100 0.3 1023330
12:00+17ese5107199 0.0 1022679
15:00+20se695883 0.0 10211320
18:00+15s3787100 0.5 1021286
21:00+14se31090100 0.8 1020361